Weather History for Crookston, MN

Change the Weather History Date:

Monday, March 31, 2014

  Actual Average Record
Temperature  
Mean Temperature 24 °F -  
Max Temperature 33 °F 41 °F 66 °F (2012)
Min Temperature 15 °F 24 °F 12 °F (2002)
Degree Days  
Heating Degree Days 41    
Moisture  
Dew Point 21 °F    
Average Humidity 90    
Maximum Humidity 100    
Minimum Humidity 80    
Precipitation  
Precipitation 0.01 in - - ()
Sea Level Pressure  
Sea Level Pressure 29.84 in    
Wind  
Wind Speed 20 mph (NNE)    
Max Wind Speed 31 mph    
Max Gust Speed 38 mph    
Visibility 5 miles    
Events Snow , Thunderstorm    
Averages and records for this station are not official NWS values.
T = Trace of Precipitation, MM = Missing Value Source: NWS Daily Summary

Daily Weather History Graph

Daily Weather History Graph

Search for Another Location

Airport:

Trip Planner

Search our weather history database for the weather conditions in past years. The results will help you decide how hot, cold, wet, or windy it might be!

Date:

Astronomy

Mar. 31, 2014 Rise Set
Actual Time 7:06 AM CDT 7:55 PM CDT
Civil Twilight 6:35 AM CDT 8:26 PM CDT
Nautical Twilight 5:58 AM CDT 9:04 PM CDT
Astronomical Twilight 5:19 AM CDT 9:43 PM CDT
Moon 7:26 AM CDT 9:22 PM CDT
Length of Visible Light 13h 50m
Length of Day
12h 48m
New Moon, 1% of the Moon is Illuminated
Mar 31
New Moon
Apr 7
First Quarter
Apr 15
Full
Apr 22
Last Quarter
Apr 29
New

Hourly Weather History & Observations

Time (CDT) Temp. Windchill Dew Point Humidity Pressure Visibility Wind Dir Wind Speed Gust Speed Precip Events Conditions
12:14 AM 32.0 °F 21.2 °F 26.6 °F 80% 29.92 in 10.0 mi NNE 16.1 mph 23.0 mph N/A   Scattered Clouds
12:35 AM 32.0 °F 20.5 °F 26.6 °F 80% 29.91 in 10.0 mi NNE 18.4 mph 24.2 mph N/A   Overcast
12:54 AM 32.0 °F 21.6 °F 28.4 °F 87% 29.91 in 10.0 mi North 15.0 mph 20.7 mph N/A   Mostly Cloudy
1:14 AM 32.0 °F 20.5 °F 26.6 °F 80% 29.91 in 10.0 mi North 18.4 mph 23.0 mph N/A   Scattered Clouds
1:35 AM 30.2 °F 17.8 °F 26.6 °F 86% 29.93 in 10.0 mi North 19.6 mph 24.2 mph N/A   Scattered Clouds
1:54 AM 30.2 °F 17.8 °F 26.6 °F 86% 29.94 in 10.0 mi North 19.6 mph 25.3 mph N/A   Overcast
2:14 AM 30.2 °F 17.8 °F 24.8 °F 80% 29.95 in 10.0 mi North 19.6 mph 26.5 mph N/A   Overcast
2:35 AM 28.4 °F 14.4 °F 24.8 °F 86% 29.93 in 10.0 mi North 23.0 mph 26.5 mph N/A   Overcast
2:54 AM 28.4 °F 16.2 °F 24.8 °F 86% 29.93 in 10.0 mi NNE 17.3 mph 24.2 mph N/A   Overcast
3:15 AM 28.4 °F 15.1 °F 24.8 °F 86% 29.91 in 10.0 mi NNE 20.7 mph 27.6 mph N/A   Overcast
3:35 AM 28.4 °F 16.2 °F 26.6 °F 93% 29.90 in 10.0 mi NNE 17.3 mph 27.6 mph N/A   Overcast
3:54 AM 28.4 °F 16.6 °F 26.6 °F 93% 29.89 in 10.0 mi NNE 16.1 mph 24.2 mph N/A   Overcast
4:15 AM 30.2 °F 18.5 °F 26.6 °F 86% 29.88 in 10.0 mi NNE 17.3 mph 26.5 mph N/A   Mostly Cloudy
4:35 AM 30.2 °F 19.3 °F 28.4 °F 93% 29.88 in 10.0 mi NNE 15.0 mph 23.0 mph N/A   Overcast
4:54 AM 30.2 °F 18.9 °F 28.4 °F 93% 29.87 in 10.0 mi NE 16.1 mph 20.7 mph N/A   Overcast
5:15 AM 32.0 °F 20.1 °F 30.2 °F 93% 29.85 in 10.0 mi NE 19.6 mph 26.5 mph N/A   Overcast
5:35 AM 33.8 °F 22.8 °F 30.2 °F 87% 29.85 in 10.0 mi NNE 18.4 mph 25.3 mph N/A   Overcast
5:54 AM 33.8 °F 22.2 °F 30.2 °F 87% 29.86 in 10.0 mi NNE 20.7 mph 26.5 mph N/A   Overcast
6:15 AM 32.0 °F 20.8 °F 28.4 °F 87% 29.86 in 10.0 mi NNE 17.3 mph 32.2 mph N/A   Overcast
6:35 AM 32.0 °F 20.1 °F 28.4 °F 87% 29.85 in 10.0 mi NE 19.6 mph 28.8 mph N/A   Overcast
6:54 AM 30.2 °F 17.4 °F 26.6 °F 86% 29.85 in 10.0 mi NE 20.7 mph 31.1 mph N/A   Overcast
7:15 AM 30.2 °F 17.8 °F 26.6 °F 86% 29.85 in 10.0 mi NE 19.6 mph 27.6 mph N/A   Overcast
7:35 AM 30.2 °F 17.8 °F 26.6 °F 86% 29.86 in 10.0 mi NNE 19.6 mph 28.8 mph N/A   Overcast
7:54 AM 30.2 °F 16.8 °F 26.6 °F 86% 29.85 in 10.0 mi NNE 23.0 mph 27.6 mph N/A   Overcast
8:15 AM 28.4 °F 14.1 °F 24.8 °F 86% 29.83 in 10.0 mi NNE 24.2 mph 31.1 mph N/A   Overcast
8:34 AM 28.4 °F 14.7 °F 24.8 °F 86% 29.82 in 10.0 mi NNE 21.9 mph 38.0 mph N/A   Overcast
8:54 AM 28.4 °F 14.1 °F 24.8 °F 86% 29.83 in 10.0 mi NNE 24.2 mph 38.0 mph N/A   Overcast
9:14 AM 28.4 °F 13.0 °F 24.8 °F 86% 29.81 in 10.0 mi NNE 28.8 mph 34.5 mph N/A   Overcast
9:34 AM 26.6 °F 12.4 °F 23.0 °F 86% 29.83 in 10.0 mi NE 21.9 mph 32.2 mph N/A   Overcast
9:55 AM 26.6 °F 11.7 °F 23.0 °F 86% 29.84 in 5.0 mi NE 24.2 mph 32.2 mph N/A Snow Light Snow
10:14 AM 26.6 °F 12.4 °F 23.0 °F 86% 29.84 in 1.2 mi NNE 21.9 mph 28.8 mph N/A Snow Light Snow
10:34 AM 24.8 °F 12.4 °F 21.2 °F 86% 29.85 in 1.5 mi NE 15.0 mph 26.5 mph N/A Snow Light Snow
10:55 AM 24.8 °F 9.3 °F 23.0 °F 93% 29.84 in 0.5 mi NNE 24.2 mph 28.8 mph N/A Snow Light Snow
11:14 AM 23.0 °F 6.3 °F 21.2 °F 93% 29.81 in 0.2 mi NNE 26.5 mph 32.2 mph N/A Snow Snow
11:34 AM 23.0 °F 5.7 °F 21.2 °F 93% 29.82 in 0.2 mi NNE 28.8 mph 35.7 mph N/A Snow Snow
11:55 AM 23.0 °F 6.6 °F 21.2 °F 93% 29.82 in 0.2 mi NNE 25.3 mph 33.4 mph N/A Snow Snow
12:14 PM 21.2 °F 4.9 °F 21.2 °F 100% 29.81 in 0.2 mi NNE 23.0 mph 35.7 mph N/A Snow Heavy Snow
12:35 PM 21.2 °F 6.0 °F 19.4 °F 93% 29.81 in 0.2 mi NNE 19.6 mph 34.5 mph N/A Snow Snow
12:55 PM 21.2 °F 3.9 °F 19.4 °F 93% 29.79 in 0.5 mi NE 26.5 mph 34.5 mph N/A Snow Light Snow
1:14 PM 21.2 °F 6.0 °F 19.4 °F 93% 29.80 in 0.5 mi NNE 19.6 mph 38.0 mph N/A Snow , Thunderstorm Snow
1:35 PM 19.4 °F 3.6 °F 17.6 °F 93% 29.80 in 0.2 mi NNE 19.6 mph 38.0 mph N/A Snow Snow
1:54 PM 19.4 °F 1.1 °F 17.6 °F 93% 29.80 in 0.2 mi NNE 27.6 mph 33.4 mph N/A Snow Snow
2:14 PM 19.4 °F 2.5 °F 17.6 °F 93% 29.80 in 0.2 mi NNE 23.0 mph 31.1 mph N/A Snow Snow
2:35 PM 19.4 °F 2.8 °F 17.6 °F 93% 29.80 in 0.2 mi NNE 21.9 mph 33.4 mph N/A Snow Heavy Snow
2:54 PM 19.4 °F 2.1 °F 17.6 °F 93% 29.77 in 0.2 mi NNE 24.2 mph 31.1 mph N/A Snow Heavy Snow
3:15 PM 19.4 °F 1.8 °F 17.6 °F 93% 29.77 in 0.2 mi NNE 25.3 mph 32.2 mph 0.01 in Snow Heavy Snow
3:34 PM 17.6 °F 0.1 °F 15.8 °F 93% 29.77 in 0.2 mi NNE 23.0 mph 34.5 mph 0.01 in Snow Heavy Snow
3:55 PM 17.6 °F 0.9 °F 15.8 °F 93% 29.77 in 0.2 mi NNE 20.7 mph 32.2 mph N/A Snow Snow
4:15 PM 17.6 °F -0.3 °F 15.8 °F 93% 29.77 in 0.2 mi NNE 24.2 mph 29.9 mph N/A Snow Snow
4:34 PM 17.6 °F 1.7 °F 15.8 °F 93% 29.78 in 0.2 mi NNE 18.4 mph 32.2 mph N/A Snow Snow
4:55 PM 17.6 °F 1.3 °F 15.8 °F 93% 29.78 in 0.2 mi NNE 19.6 mph 35.7 mph N/A Snow , Thunderstorm Thunderstorms and Snow
5:14 PM 17.6 °F 0.1 °F 15.8 °F 93% 29.80 in 0.2 mi North 23.0 mph 29.9 mph N/A Snow , Thunderstorm Thunderstorms and Snow
5:34 PM 17.6 °F 0.9 °F 15.8 °F 93% 29.80 in 0.2 mi North 20.7 mph 29.9 mph N/A Snow , Thunderstorm Snow
5:54 PM 17.6 °F 0.9 °F 15.8 °F 93% 29.81 in 0.2 mi North 20.7 mph 28.8 mph N/A Snow Snow
6:14 PM 15.8 °F -2.7 °F 14.0 °F 93% 29.80 in 0.2 mi NNE 24.2 mph 33.4 mph N/A Snow Heavy Snow
6:35 PM 15.8 °F -1.9 °F 14.0 °F 93% 29.81 in 0.2 mi NNE 21.9 mph 29.9 mph N/A Snow Snow
6:55 PM 15.8 °F -1.5 °F 14.0 °F 93% 29.83 in 0.2 mi NNE 20.7 mph 28.8 mph N/A Snow Heavy Snow
7:14 PM 15.8 °F -1.9 °F 14.0 °F 93% 29.83 in 0.2 mi North 21.9 mph 28.8 mph N/A Snow Heavy Snow
7:35 PM 15.8 °F -3.1 °F 14.0 °F 93% 29.82 in 0.2 mi North 25.3 mph 33.4 mph N/A Snow Heavy Snow
7:54 PM 15.8 °F -2.7 °F 14.0 °F 93% 29.82 in 0.2 mi North 24.2 mph 35.7 mph N/A Snow Heavy Snow
8:14 PM 15.8 °F -2.7 °F 14.0 °F 93% 29.83 in 0.2 mi NNE 24.2 mph 35.7 mph N/A Snow Heavy Snow
8:35 PM 15.8 °F -3.1 °F 14.0 °F 93% 29.84 in 0.2 mi North 25.3 mph 32.2 mph N/A Snow Heavy Snow
8:54 PM 15.8 °F -2.7 °F 14.0 °F 93% 29.85 in - North 24.2 mph 32.2 mph N/A   Overcast
9:15 PM 15.8 °F -3.1 °F 12.2 °F 86% 29.86 in - North 25.3 mph 36.8 mph N/A   Overcast
9:35 PM 15.8 °F -3.1 °F 14.0 °F 93% 29.87 in - North 25.3 mph 34.5 mph N/A   Overcast
9:55 PM 15.8 °F -3.1 °F 14.0 °F 93% 29.87 in - North 25.3 mph 31.1 mph N/A   Unknown
10:14 PM 15.8 °F -2.3 °F 14.0 °F 93% 29.87 in - North 23.0 mph 29.9 mph N/A   Overcast
10:34 PM 15.8 °F -3.4 °F 14.0 °F 93% 29.86 in - North 26.5 mph 33.4 mph N/A   Overcast
10:55 PM 15.8 °F -3.7 °F 12.2 °F 86% 29.86 in - North 27.6 mph 34.5 mph N/A   Overcast
11:14 PM 15.8 °F -4.4 °F 14.0 °F 93% 29.85 in - North 29.9 mph 35.7 mph N/A   Overcast
11:35 PM 15.8 °F -4.4 °F 14.0 °F 93% 29.86 in - North 29.9 mph 34.5 mph N/A   Overcast
11:55 PM 15.8 °F -4.7 °F 14.0 °F 93% 29.86 in - North 31.1 mph 36.8 mph N/A   Unknown